Luqa, Malta

9:17 PM CEST on October 17, 2018 (GMT +0200)
Luqa

Weather History for LMML - October, 2018

Change the Weather History Date:

Friday, October 12, 2018

  Actual Average Record
Temperature  
Mean Temperature 72 °F -  
Max Temperature 77 °F 73 °F 86 °F (2013)
Min Temperature 66 °F 61 °F 59 °F (1996)
Cooling Degree Days 6    
Growing Degree Days 22 (Base 50)    
Moisture  
Dew Point 66 °F    
Average Humidity 86    
Maximum Humidity 100    
Minimum Humidity 65    
Precipitation  
Precipitation 0.55 in 0.11 in - ()
Sea Level Pressure  
Sea Level Pressure 30.13 in    
Wind  
Wind Speed 4 mph ()    
Max Wind Speed 12 mph    
Max Gust Speed -    
Visibility 6.2 miles    
Events Rain , Thunderstorm    
Averages and records for this station are not official NWS values.
T = Trace of Precipitation, MM = Missing Value Source: Averaged Metar Reports

Daily Weather History Graph

Daily Weather History Graph

Search for Another Location

Airport or City:

Astronomy

Oct. 12, 2018 Rise Set
Actual Time 7:05 AM CEST 6:30 PM CEST
Civil Twilight 6:40 AM CEST 6:56 PM CEST
Nautical Twilight 6:10 AM CEST 7:25 PM CEST
Astronomical Twilight 5:40 AM CEST 7:55 PM CEST
Moon 10:17 AM CEST (10/12) 9:00 PM CEST (10/12)
Length of Visible Light 12h 16m
Length of Day
11h 24m
Waxing Crescent, 12% of the Moon is Illuminated
Oct 12
Waxing Crescent
Oct 16
First Quarter
Oct 24
Full
Oct 31
Last Quarter
Nov 7
New

Hourly Weather History & Observations

Time (CEST) Temp. Dew Point Humidity Pressure Visibility Wind Dir Wind Speed Gust Speed Precip Events Conditions
12:15 AM 69.8 °F 64.4 °F 83% 30.12 in 6.2 mi SSE 3.5 mph - N/A   Partly Cloudy
12:45 AM 69.8 °F 64.4 °F 83% 30.12 in 6.2 mi SSE 5.8 mph - N/A   Partly Cloudy
1:15 AM 68.0 °F 64.4 °F 88% 30.12 in 6.2 mi SE 4.6 mph - N/A   Partly Cloudy
1:45 AM 68.0 °F 64.4 °F 88% 30.12 in 6.2 mi SE 2.3 mph - N/A   Partly Cloudy
2:00 AM 69 °F 65 °F 82% 30.13 in 7 mi SE 2.3 mph - -  
2:15 AM 68.0 °F 64.4 °F 88% 30.12 in 6.2 mi SE 2.3 mph - N/A   Partly Cloudy
3:15 AM 68.0 °F 64.4 °F 88% 30.12 in 6.2 mi SSE 2.3 mph - N/A   Partly Cloudy
3:45 AM 68.0 °F 64.4 °F 88% 30.12 in 6.2 mi SSE 1.2 mph - N/A   Partly Cloudy
4:15 AM 66.2 °F 64.4 °F 94% 30.12 in 6.2 mi SW 1.2 mph - N/A   Partly Cloudy
4:45 AM 66.2 °F 64.4 °F 94% 30.12 in 6.2 mi NNE 2.3 mph - N/A   Partly Cloudy
5:00 AM 66 °F 65 °F 94% 30.12 in 7 mi NNE 2.3 mph - -   Scattered Clouds
5:15 AM 66.2 °F 64.4 °F 94% 30.12 in 6.2 mi SE 2.3 mph - N/A   Partly Cloudy
5:45 AM 66.2 °F 64.4 °F 94% 30.12 in 6.2 mi Calm Calm - N/A   Partly Cloudy
6:15 AM 66.2 °F 64.4 °F 94% 30.12 in 6.2 mi NE 2.3 mph - N/A   Partly Cloudy
6:45 AM 66.2 °F 64.4 °F 94% 30.12 in 6.2 mi Variable 1.2 mph - N/A   Partly Cloudy
7:45 AM 66.2 °F 64.4 °F 94% 30.12 in 6.2 mi SSE 2.3 mph - N/A   Partly Cloudy
8:00 AM 67 °F 65 °F 93% 30.12 in 7 mi SE 5.8 mph - -  
8:15 AM 69.8 °F 68.0 °F 94% 30.12 in 6.2 mi SE 5.8 mph - N/A   Partly Cloudy
8:45 AM 71.6 °F 69.8 °F 94% 30.12 in 6.2 mi SE 5.8 mph - N/A   Partly Cloudy
9:15 AM 73.4 °F 66.2 °F 78% 30.15 in 6.2 mi ESE 8.1 mph - N/A   Partly Cloudy
9:45 AM 73.4 °F 66.2 °F 78% 30.15 in 6.2 mi SE 9.2 mph - N/A   Partly Cloudy
10:15 AM 75.2 °F 66.2 °F 73% 30.15 in 6.2 mi SE 5.8 mph - N/A   Partly Cloudy
10:45 AM 75.2 °F 66.2 °F 73% 30.15 in 6.2 mi SE 8.1 mph - N/A   Scattered Clouds
11:00 AM 76 °F 67 °F 68% 30.16 in 12 mi SE 10.4 mph - -   Partly Cloudy
11:15 AM 75.2 °F 68.0 °F 78% 30.15 in 6.2 mi SSE 8.1 mph - N/A   Scattered Clouds
11:45 AM 77.0 °F 68.0 °F 74% 30.15 in 6.2 mi SSE 9.2 mph - N/A   Scattered Clouds
12:15 PM 77.0 °F 66.2 °F 69% 30.15 in 6.2 mi South 4.6 mph - N/A   Scattered Clouds
12:33 PM 77.0 °F 64.4 °F 65% 30.15 in 6.2 mi South 3.5 mph - N/A Thunderstorm Thunderstorm
12:45 PM 77.0 °F 64.4 °F 65% 30.15 in 6.2 mi ESE 6.9 mph - N/A Thunderstorm Thunderstorm
1:15 PM 75.2 °F 66.2 °F 73% 30.15 in 6.2 mi Variable 3.5 mph - N/A Rain , Thunderstorm Light Thunderstorms and Rain
1:45 PM 71.6 °F 66.2 °F 83% 30.15 in 5.0 mi WSW 4.6 mph - N/A Rain , Thunderstorm Thunderstorms and Rain
2:00 PM 70 °F 65 °F 78% 30.14 in 5 mi NW 5.8 mph - - Rain , Thunderstorm Thunderstorms and Rain
2:15 PM 71.6 °F 66.2 °F 83% 30.12 in 6.2 mi West 4.6 mph - N/A Rain , Thunderstorm Light Thunderstorms and Rain
2:45 PM 71.6 °F 68.0 °F 88% 30.12 in 6.2 mi West 1.2 mph - N/A   Partly Cloudy
3:15 PM 73.4 °F 68.0 °F 83% 30.12 in 6.2 mi SE 2.3 mph - N/A   Partly Cloudy
3:45 PM 75.2 °F 68.0 °F 78% 30.12 in 6.2 mi SSW 3.5 mph - N/A   Partly Cloudy
4:15 PM 75.2 °F 66.2 °F 73% 30.12 in 6.2 mi SSW 3.5 mph - N/A   Partly Cloudy
4:45 PM 75.2 °F 68.0 °F 78% 30.09 in 6.2 mi SSE 6.9 mph - N/A   Scattered Clouds
5:00 PM 74 °F 67 °F 74% 30.11 in 12 mi South 6.9 mph - -   Partly Cloudy
5:15 PM 73.4 °F 66.2 °F 78% 30.09 in 5.0 mi SSW 4.6 mph - N/A Rain Rain Showers
5:45 PM 73.4 °F 68.0 °F 83% 30.09 in 6.2 mi SSW 5.8 mph - N/A Rain Light Rain Showers
6:15 PM 71.6 °F 68.0 °F 88% 30.09 in 6.2 mi WSW 3.5 mph - N/A   Scattered Clouds
6:45 PM 71.6 °F 68.0 °F 88% 30.09 in 6.2 mi Variable 1.2 mph - N/A   Scattered Clouds
7:15 PM 71.6 °F 68.0 °F 88% 30.09 in 6.2 mi NE 1.2 mph - N/A Rain , Thunderstorm Light Thunderstorms and Rain
7:45 PM 71.6 °F 68.0 °F 88% 30.09 in 6.2 mi East 6.9 mph - N/A Rain , Thunderstorm Light Thunderstorms and Rain
8:15 PM 68.0 °F 64.4 °F 88% 30.12 in 3.7 mi ESE 11.5 mph - N/A Rain , Thunderstorm Thunderstorms and Rain
8:45 PM 66.2 °F 64.4 °F 94% 30.15 in 2.5 mi NE 3.5 mph - N/A Rain , Thunderstorm Heavy Thunderstorms and Rain
9:15 PM 66.2 °F 64.4 °F 94% 30.15 in 3.7 mi East 11.5 mph - N/A Rain , Thunderstorm Thunderstorms and Rain
9:45 PM 66.2 °F 66.2 °F 100% 30.15 in 5.6 mi ESE 6.9 mph - N/A Rain , Thunderstorm Light Thunderstorms and Rain
10:15 PM 66.2 °F 66.2 °F 100% 30.15 in 6.2 mi East 6.9 mph - N/A Rain , Thunderstorm Light Thunderstorms and Rain
10:34 PM 68.0 °F 66.2 °F 94% 30.15 in 6.2 mi ESE 9.2 mph - N/A   Partly Cloudy
10:45 PM 66.2 °F 66.2 °F 100% 30.15 in 6.2 mi East 8.1 mph - N/A   Partly Cloudy
11:00 PM 67 °F 66 °F 97% 30.14 in 6 mi East 6.9 mph - - Thunderstorm Light Thunderstorm
11:15 PM 66.2 °F 66.2 °F 100% 30.12 in 6.2 mi East 4.6 mph - N/A   Partly Cloudy
11:45 PM 66.2 °F 66.2 °F 100% 30.12 in 6.2 mi East 5.8 mph - N/A   Scattered Clouds